Saint James, MN

3:28 AM CST on February 28, 2017 (GMT -0600)
Saint James Municipal

Weather History for KJYG - November, 2012

Change the Weather History Date:

Sunday, November 4, 2012

  Actual Average Record
Temperature  
Mean Temperature 42 °F -  
Max Temperature 48 °F 45 °F 74 °F (1975)
Min Temperature 35 °F 28 °F -2 °F (1991)
Degree Days  
Heating Degree Days 24    
Moisture  
Dew Point 35 °F    
Average Humidity 81    
Maximum Humidity 93    
Minimum Humidity 62    
Precipitation  
Precipitation 0.00 in - - ()
Sea Level Pressure  
Sea Level Pressure 30.15 in    
Wind  
Wind Speed 0 mph (SE)    
Max Wind Speed 9 mph    
Max Gust Speed -    
Visibility 8 miles    
Events Rain    
Averages and records for this station are not official NWS values.
T = Trace of Precipitation, MM = Missing Value Source: NWS Daily Summary

Daily Weather History Graph

Daily Weather History Graph

Search for Another Location

Airport or City:

Trip Planner

Search our weather history database for the weather conditions in past years. The results will help you decide how hot, cold, wet, or windy it might be!

Date:

Astronomy

Nov. 04, 2012 Rise Set
Actual Time 6:59 AM CST 5:03 PM CST
Civil Twilight 6:28 AM CST 5:34 PM CST
Nautical Twilight 5:54 AM CST 6:08 PM CST
Astronomical Twilight 5:21 AM CST 6:41 PM CST
Moon 9:40 PM CST (11/4) 11:45 AM CST (11/4)
Length of Visible Light 11h 05m
Length of Day
10h 04m
Waning Gibbous, 72% of the Moon is Illuminated
Nov 4
Waning Gibbous
Nov 6
Last Quarter
Nov 13
New
Nov 20
First Quarter
Nov 28
Full

Hourly Weather History & Observations

Time (CST) Temp. Windchill Dew Point Humidity Pressure Visibility Wind Dir Wind Speed Gust Speed Precip Events Conditions
12:15 AM 37.4 °F - 33.8 °F 87% 30.21 in 10.0 mi Calm Calm - N/A   Light Drizzle
12:35 AM 37.4 °F - 33.8 °F 87% 30.20 in 10.0 mi Calm Calm - N/A   Light Drizzle
12:55 AM 37.4 °F - 33.8 °F 87% 30.20 in 10.0 mi Calm Calm - N/A   Light Drizzle
1:14 AM 37.4 °F - 33.8 °F 87% 30.20 in 10.0 mi Calm Calm - N/A   Light Drizzle
1:35 AM 37.4 °F - 33.8 °F 87% 30.20 in 10.0 mi Calm Calm - N/A   Mostly Cloudy
1:54 AM 37.4 °F - 33.8 °F 87% 30.20 in 10.0 mi Calm Calm - N/A   Light Drizzle
1:15 AM 37.4 °F - 33.8 °F 87% 30.20 in 10.0 mi Calm Calm - N/A   Overcast
1:35 AM 37.4 °F - 33.8 °F 87% 30.20 in 10.0 mi Calm Calm - N/A   Overcast
1:54 AM 37.4 °F - 33.8 °F 87% 30.20 in 10.0 mi Calm Calm - N/A   Overcast
2:15 AM 37.4 °F - 33.8 °F 87% 30.20 in 10.0 mi Calm Calm - N/A   Overcast
2:34 AM 37.4 °F - 33.8 °F 87% 30.20 in 10.0 mi Calm Calm - N/A   Overcast
2:55 AM 37.4 °F - 33.8 °F 87% 30.20 in 7.0 mi Calm Calm - N/A   Mostly Cloudy
3:15 AM 37.4 °F - 33.8 °F 87% 30.20 in 7.0 mi Calm Calm - N/A   Overcast
3:35 AM 37.4 °F - 33.8 °F 87% 30.19 in 7.0 mi Calm Calm - N/A   Overcast
3:55 AM 37.4 °F - 33.8 °F 87% 30.20 in 7.0 mi Calm Calm - N/A   Mostly Cloudy
4:15 AM 35.6 °F - 33.8 °F 93% 30.20 in 7.0 mi Calm Calm - N/A   Mostly Cloudy
4:34 AM 35.6 °F - 33.8 °F 93% 30.19 in 7.0 mi Calm Calm - N/A   Overcast
4:55 AM 35.6 °F - 33.8 °F 93% 30.19 in 7.0 mi Calm Calm - N/A   Mostly Cloudy
5:15 AM 35.6 °F - 33.8 °F 93% 30.19 in 7.0 mi Calm Calm - N/A   Mostly Cloudy
5:35 AM 35.6 °F - 33.8 °F 93% 30.20 in 7.0 mi Calm Calm - N/A   Overcast
5:55 AM 37.4 °F - 33.8 °F 87% 30.20 in 7.0 mi Calm Calm - N/A   Overcast
6:15 AM 37.4 °F - 33.8 °F 87% 30.20 in 7.0 mi Calm Calm - N/A   Overcast
6:35 AM 37.4 °F - 33.8 °F 87% 30.19 in 7.0 mi Calm Calm - N/A   Overcast
6:55 AM 35.6 °F - 33.8 °F 93% 30.19 in 7.0 mi Calm Calm - N/A   Overcast
7:14 AM 35.6 °F - 33.8 °F 93% 30.19 in 7.0 mi Calm Calm - N/A   Overcast
7:35 AM 35.6 °F - 33.8 °F 93% 30.19 in 5.0 mi Calm Calm - N/A   Overcast
7:55 AM 35.6 °F - 33.8 °F 93% 30.19 in 5.0 mi Calm Calm - N/A   Overcast
8:15 AM 37.4 °F - 33.8 °F 87% 30.19 in 7.0 mi Calm Calm - N/A   Overcast
8:34 AM 37.4 °F - 33.8 °F 87% 30.19 in 7.0 mi Calm Calm - N/A   Overcast
8:54 AM 37.4 °F - 35.6 °F 93% 30.18 in 10.0 mi Calm Calm - N/A   Overcast
9:15 AM 39.2 °F - 35.6 °F 87% 30.18 in 10.0 mi Calm Calm - N/A   Overcast
9:35 AM 39.2 °F - 35.6 °F 87% 30.18 in 10.0 mi Calm Calm - N/A   Mostly Cloudy
9:55 AM 41.0 °F 35.8 °F 35.6 °F 81% 30.17 in 10.0 mi ESE 8.1 mph - N/A   Mostly Cloudy
10:15 AM 42.8 °F - 35.6 °F 76% 30.17 in 10.0 mi Calm Calm - N/A   Mostly Cloudy
10:34 AM 42.8 °F - 35.6 °F 76% 30.17 in 10.0 mi Calm Calm - N/A   Mostly Cloudy
10:55 AM 42.8 °F - 37.4 °F 81% 30.16 in 10.0 mi Calm Calm - N/A   Mostly Cloudy
11:15 AM 44.6 °F - 37.4 °F 76% 30.15 in 10.0 mi Calm Calm - N/A   Mostly Cloudy
11:35 AM 44.6 °F - 35.6 °F 71% 30.15 in 10.0 mi Calm Calm - N/A   Overcast
11:54 AM 44.6 °F - 35.6 °F 71% 30.15 in 10.0 mi Calm Calm - N/A   Overcast
12:15 PM 44.6 °F - 37.4 °F 76% 30.14 in 10.0 mi Calm Calm - N/A   Overcast
12:34 PM 44.6 °F - 37.4 °F 76% 30.13 in 10.0 mi Calm Calm - N/A   Mostly Cloudy
12:55 PM 46.4 °F - 37.4 °F 71% 30.12 in 10.0 mi Calm Calm - N/A   Mostly Cloudy
1:15 PM 46.4 °F - 37.4 °F 71% 30.11 in 10.0 mi Calm Calm - N/A   Mostly Cloudy
1:35 PM 46.4 °F - 37.4 °F 71% 30.10 in 10.0 mi Calm Calm - N/A   Scattered Clouds
1:55 PM 46.4 °F - 37.4 °F 71% 30.09 in 10.0 mi Calm Calm - N/A   Scattered Clouds
2:14 PM 48.2 °F - 37.4 °F 66% 30.09 in 10.0 mi Calm Calm - N/A   Scattered Clouds
2:35 PM 48.2 °F - 37.4 °F 66% 30.09 in 10.0 mi Calm Calm - N/A   Scattered Clouds
2:55 PM 48.2 °F - 37.4 °F 66% 30.09 in 10.0 mi Calm Calm - N/A   Mostly Cloudy
3:14 PM 48.2 °F - 35.6 °F 62% 30.09 in 10.0 mi Calm Calm - N/A   Mostly Cloudy
3:35 PM 48.2 °F - 35.6 °F 62% 30.09 in 10.0 mi Calm Calm - N/A   Mostly Cloudy
3:55 PM 48.2 °F - 35.6 °F 62% 30.09 in 10.0 mi Calm Calm - N/A   Scattered Clouds
4:15 PM 48.2 °F - 35.6 °F 62% 30.09 in 10.0 mi Calm Calm - N/A   Scattered Clouds
4:35 PM 46.4 °F - 35.6 °F 66% 30.09 in 10.0 mi Calm Calm - N/A   Scattered Clouds
4:55 PM 46.4 °F - 35.6 °F 66% 30.09 in 10.0 mi Calm Calm - N/A   Scattered Clouds
5:14 PM 46.4 °F - 35.6 °F 66% 30.10 in 10.0 mi Calm Calm - N/A   Mostly Cloudy
5:35 PM 46.4 °F - 35.6 °F 66% 30.10 in 10.0 mi Calm Calm - N/A   Scattered Clouds
5:54 PM 46.4 °F - 35.6 °F 66% 30.10 in 10.0 mi Calm Calm - N/A   Scattered Clouds
6:15 PM 44.6 °F 39.7 °F 35.6 °F 71% 30.10 in 10.0 mi SSE 9.2 mph - N/A   Scattered Clouds
6:35 PM 44.6 °F 39.7 °F 35.6 °F 71% 30.11 in 10.0 mi SSE 9.2 mph - N/A   Scattered Clouds
6:55 PM 44.6 °F 43.1 °F 37.4 °F 76% 30.11 in 10.0 mi SSE 3.5 mph - N/A   Scattered Clouds
7:15 PM 42.8 °F - 37.4 °F 81% 30.11 in 10.0 mi Calm Calm - N/A   Mostly Cloudy
7:34 PM 42.8 °F - 37.4 °F 81% 30.11 in 10.0 mi Calm Calm - N/A   Overcast
7:55 PM 42.8 °F - 37.4 °F 81% 30.11 in 7.0 mi Calm Calm - N/A   Mostly Cloudy
8:14 PM 42.8 °F - 37.4 °F 81% 30.11 in 7.0 mi Calm Calm - N/A   Drizzle
8:35 PM 42.8 °F - 37.4 °F 81% 30.12 in 5.0 mi Calm Calm - N/A Rain Light Rain
8:55 PM 41.0 °F - 37.4 °F 87% 30.12 in 4.0 mi Calm Calm - N/A Rain Rain
9:14 PM 41.0 °F - 37.4 °F 87% 30.12 in 3.0 mi Calm Calm - N/A Rain Light Rain
9:35 PM 41.0 °F - 37.4 °F 87% 30.12 in 3.0 mi Calm Calm - N/A Rain Rain
9:54 PM 41.0 °F - 37.4 °F 87% 30.12 in 4.0 mi Calm Calm - N/A Rain Rain
10:15 PM 41.0 °F - 37.4 °F 87% 30.12 in 3.0 mi Calm Calm - N/A Rain Rain
10:34 PM 39.2 °F - 37.4 °F 93% 30.12 in 3.0 mi Calm Calm - N/A Rain Rain
10:55 PM 39.2 °F - 37.4 °F 93% 30.12 in 4.0 mi Calm Calm - N/A   Drizzle